Meteo orario Abbakumovo

Oggi, 24 Giugno, Giovedi

Tempo Temperatura Precipitazioni Vento Pressione Umidità
00:00 +23°C° 0 mm 1 m/s 745 mm Hg 79%
01:00 +23°C° 0 mm 1 m/s 746 mm Hg 80%
02:00 +22°C° 0 mm 1 m/s 746 mm Hg 81%
03:00 +23°C° 0 mm 1 m/s 745 mm Hg 80%
04:00 +23°C° 0 mm 1 m/s 745 mm Hg 80%
05:00 +24°C° 0 mm 1 m/s 745 mm Hg 79%
06:00 +26°C° 0 mm 1 m/s 745 mm Hg 71%
07:00 +28°C° 0 mm 1 m/s 745 mm Hg 62%
08:00 +30°C° 0 mm 2 m/s 745 mm Hg 53%
09:00 +31°C° 0 mm 2 m/s 745 mm Hg 48%
10:00 +34°C° 0 mm 2 m/s 745 mm Hg 44%
11:00 +35°C° 0 mm 2 m/s 745 mm Hg 39%
12:00 +35°C° 0 mm 2 m/s 745 mm Hg 36%
13:00 +36°C° 0 mm 2 m/s 745 mm Hg 33%
14:00 +37°C° 0 mm 2 m/s 744 mm Hg 30%
15:00 +34°C° 0.4 mm 4 m/s 744 mm Hg 40%
16:00 +32°C° 0.4 mm 5 m/s 744 mm Hg 51%
17:00 +29°C° 0.4 mm 6 m/s 744 mm Hg 61%
18:00 +26°C° 1.9 mm 5 m/s 744 mm Hg 72%
19:00 +23°C° 1.9 mm 4 m/s 744 mm Hg 83%
20:00 +21°C° 1.9 mm 3 m/s 744 mm Hg 95%
21:00 +20°C° 0.5 mm 2 m/s 744 mm Hg 94%
22:00 +21°C° 0.5 mm 1 m/s 744 mm Hg 94%
23:00 +21°C° 0.5 mm 1 m/s 744 mm Hg 94%

Domani, 25 Giugno, Venerdi

Tempo Temperatura Precipitazioni Vento Pressione Umidità
00:00 +20°C° 0.3 mm 1 m/s 744 mm Hg 94%
01:00 +20°C° 0.3 mm 1 m/s 743 mm Hg 95%
02:00 +19°C° 0.3 mm 2 m/s 743 mm Hg 95%
03:00 +20°C° 0 mm 1 m/s 743 mm Hg 95%
04:00 +21°C° 0 mm 1 m/s 743 mm Hg 94%
05:00 +21°C° 0 mm 1 m/s 743 mm Hg 93%
06:00 +23°C° 0 mm 1 m/s 743 mm Hg 84%
07:00 +25°C° 0 mm 1 m/s 743 mm Hg 75%
08:00 +27°C° 0 mm 1 m/s 743 mm Hg 66%
09:00 +29°C° 0 mm 1 m/s 743 mm Hg 59%
10:00 +31°C° 0 mm 2 m/s 742 mm Hg 51%
11:00 +34°C° 0 mm 2 m/s 742 mm Hg 43%
12:00 +34°C° 0 mm 2 m/s 742 mm Hg 44%
13:00 +34°C° 0 mm 2 m/s 742 mm Hg 46%
14:00 +32°C° 0 mm 2 m/s 741 mm Hg 47%
15:00 +29°C° 6.1 mm 2 m/s 741 mm Hg 63%
16:00 +25°C° 6.1 mm 3 m/s 741 mm Hg 79%
17:00 +20°C° 6.1 mm 3 m/s 741 mm Hg 96%
18:00 +20°C° 1.4 mm 3 m/s 741 mm Hg 96%
19:00 +20°C° 1.4 mm 2 m/s 740 mm Hg 95%
20:00 +19°C° 1.4 mm 2 m/s 740 mm Hg 95%
21:00 +19°C° 0 mm 2 m/s 740 mm Hg 96%
22:00 +19°C° 0 mm 2 m/s 740 mm Hg 97%
23:00 +19°C° 0 mm 2 m/s 740 mm Hg 98%

Dopodomani, 26 Giugno, Sabato

Tempo Temperatura Precipitazioni Vento Pressione Umidità
00:00 +19°C° 0 mm 2 m/s 740 mm Hg 98%
01:00 +19°C° 0 mm 1 m/s 740 mm Hg 98%
02:00 +19°C° 0 mm 1 m/s 740 mm Hg 98%
03:00 +20°C° 0 mm 1 m/s 740 mm Hg 97%
04:00 +20°C° 0 mm 1 m/s 740 mm Hg 97%
05:00 +19°C° 0 mm 0 m/s 740 mm Hg 96%
06:00 +22°C° 0 mm 1 m/s 740 mm Hg 89%
07:00 +24°C° 0 mm 1 m/s 740 mm Hg 82%
08:00 +25°C° 0 mm 1 m/s 740 mm Hg 75%
09:00 +27°C° 0 mm 1 m/s 740 mm Hg 67%
10:00 +28°C° 0 mm 2 m/s 740 mm Hg 59%
11:00 +30°C° 0 mm 2 m/s 740 mm Hg 51%
12:00 +31°C° 0 mm 2 m/s 740 mm Hg 49%
13:00 +31°C° 0 mm 2 m/s 740 mm Hg 46%
14:00 +32°C° 0 mm 2 m/s 740 mm Hg 44%
15:00 +29°C° 0.7 mm 2 m/s 740 mm Hg 57%
16:00 +27°C° 0.7 mm 3 m/s 740 mm Hg 69%
17:00 +25°C° 0.7 mm 3 m/s 739 mm Hg 82%
18:00 +24°C° 0.5 mm 2 m/s 740 mm Hg 86%
19:00 +23°C° 0.5 mm 2 m/s 740 mm Hg 90%
20:00 +22°C° 0.5 mm 1 m/s 741 mm Hg 95%
21:00 +21°C° 0 mm 1 m/s 741 mm Hg 96%
22:00 +20°C° 0 mm 1 m/s 741 mm Hg 97%
23:00 +20°C° 0 mm 1 m/s 741 mm Hg 98%

27 Giugno, Domenica

Tempo Temperatura Precipitazioni Vento Pressione Umidità
00:00 +20°C° 0 mm 1 m/s 741 mm Hg 98%
01:00 +19°C° 0 mm 1 m/s 741 mm Hg 98%
02:00 +19°C° 0 mm 1 m/s 741 mm Hg 98%
03:00 +20°C° 0 mm 1 m/s 741 mm Hg 98%
04:00 +20°C° 0 mm 1 m/s 741 mm Hg 97%
05:00 +20°C° 0 mm 1 m/s 741 mm Hg 97%
06:00 +22°C° 0 mm 1 m/s 742 mm Hg 89%
07:00 +23°C° 0 mm 1 m/s 742 mm Hg 81%
08:00 +24°C° 0 mm 1 m/s 742 mm Hg 73%
09:00 +26°C° 0 mm 1 m/s 742 mm Hg 66%
10:00 +27°C° 0 mm 1 m/s 742 mm Hg 60%
11:00 +29°C° 0 mm 1 m/s 742 mm Hg 53%
12:00 +29°C° 0 mm 1 m/s 742 mm Hg 53%
13:00 +29°C° 0 mm 1 m/s 741 mm Hg 52%
14:00 +30°C° 0 mm 1 m/s 741 mm Hg 52%
15:00 +28°C° 0.1 mm 2 m/s 741 mm Hg 59%
16:00 +27°C° 0.1 mm 2 m/s 740 mm Hg 66%
17:00 +25°C° 0.1 mm 2 m/s 740 mm Hg 73%
18:00 +24°C° 3.7 mm 2 m/s 740 mm Hg 81%
19:00 +21°C° 3.7 mm 2 m/s 741 mm Hg 89%
20:00 +19°C° 3.7 mm 2 m/s 741 mm Hg 97%
21:00 +19°C° 0 mm 2 m/s 741 mm Hg 97%
22:00 +18°C° 0 mm 2 m/s 741 mm Hg 98%
23:00 +18°C° 0 mm 2 m/s 741 mm Hg 98%

28 Giugno, Lunedi

Tempo Temperatura Precipitazioni Vento Pressione Umidità
00:00 +18°C° 0 mm 2 m/s 741 mm Hg 98%
01:00 +18°C° 0 mm 2 m/s 741 mm Hg 97%
02:00 +17°C° 0 mm 2 m/s 741 mm Hg 97%
03:00 +17°C° 0 mm 2 m/s 741 mm Hg 97%
04:00 +17°C° 0 mm 2 m/s 741 mm Hg 97%
05:00 +17°C° 0 mm 2 m/s 741 mm Hg 96%
06:00 +17°C° 0.1 mm 2 m/s 741 mm Hg 96%
07:00 +18°C° 0.1 mm 2 m/s 741 mm Hg 96%
08:00 +18°C° 0.1 mm 2 m/s 742 mm Hg 96%
09:00 +18°C° 0.4 mm 2 m/s 742 mm Hg 96%
10:00 +17°C° 0.4 mm 2 m/s 742 mm Hg 96%
11:00 +17°C° 0.4 mm 2 m/s 742 mm Hg 96%
12:00 +18°C° 0.2 mm 2 m/s 742 mm Hg 95%
13:00 +18°C° 0.2 mm 2 m/s 742 mm Hg 93%
14:00 +19°C° 0.2 mm 1 m/s 742 mm Hg 91%
15:00 +20°C° 0 mm 1 m/s 742 mm Hg 88%
16:00 +20°C° 0 mm 1 m/s 741 mm Hg 84%
17:00 +21°C° 0 mm 1 m/s 741 mm Hg 81%
18:00 +20°C° 0 mm 1 m/s 741 mm Hg 84%
19:00 +19°C° 0 mm 1 m/s 741 mm Hg 87%
20:00 +19°C° 0 mm 1 m/s 741 mm Hg 90%
21:00 +18°C° 0 mm 1 m/s 741 mm Hg 91%
22:00 +16°C° 0 mm 1 m/s 741 mm Hg 93%
23:00 +16°C° 0 mm 2 m/s 741 mm Hg 94%

29 Giugno, Martedi

Tempo Temperatura Precipitazioni Vento Pressione Umidità
00:00 +15°C° 0 mm 2 m/s 741 mm Hg 94%
01:00 +15°C° 0 mm 2 m/s 741 mm Hg 94%
02:00 +15°C° 0 mm 2 m/s 741 mm Hg 94%
03:00 +15°C° 0 mm 1 m/s 741 mm Hg 92%
04:00 +16°C° 0 mm 1 m/s 741 mm Hg 90%
05:00 +18°C° 0 mm 1 m/s 741 mm Hg 88%
06:00 +20°C° 0 mm 1 m/s 742 mm Hg 79%
07:00 +21°C° 0 mm 2 m/s 742 mm Hg 69%
08:00 +24°C° 0 mm 2 m/s 742 mm Hg 60%
09:00 +25°C° 0 mm 2 m/s 742 mm Hg 55%
10:00 +26°C° 0 mm 3 m/s 742 mm Hg 49%
11:00 +27°C° 0 mm 3 m/s 742 mm Hg 44%
12:00 +27°C° 0 mm 3 m/s 741 mm Hg 46%
13:00 +26°C° 0 mm 3 m/s 741 mm Hg 49%
14:00 +26°C° 0 mm 3 m/s 741 mm Hg 52%
15:00 +25°C° 0 mm 2 m/s 741 mm Hg 57%
16:00 +24°C° 0 mm 2 m/s 741 mm Hg 61%
17:00 +23°C° 0 mm 2 m/s 741 mm Hg 66%
18:00 +23°C° 0 mm 2 m/s 741 mm Hg 70%
19:00 +22°C° 0 mm 1 m/s 741 mm Hg 73%
20:00 +21°C° 0 mm 1 m/s 741 mm Hg 76%
21:00 +20°C° 0 mm 1 m/s 741 mm Hg 78%
22:00 +19°C° 0 mm 1 m/s 741 mm Hg 79%
23:00 +19°C° 0 mm 1 m/s 741 mm Hg 80%
Mostrare altro

Abbiamo bisogno del tuo consenso

Meteoprog e i nostri fornitori di servizi possono memorizzare e accedere a dati personali come cookie, identificatori di dispositivi o altre tecnologie simili sul tuo dispositivo e possono elaborare tali dati per personalizzare i contenuti e gli annunci, nonché fornire funzionalità dei social media e analizzarne il traffico.

  • Archiviare e/o accedere alle informazioni sul tuo dispositivo

    Cookie, identificatori di dispositivi o altre informazioni possono essere memorizzati o resi accessibili sul tuo dispositivo per le finalità sopra indicate.

  • Annunci e contenuti personalizzati, misurazione di annunci e contenuti, approfondimenti sul pubblico e sviluppo di prodotti

    Gli annunci e i contenuti possono essere personalizzati in base a un profilo. È possibile aggiungere più dati per personalizzare meglio annunci e contenuti. È possibile misurare il rendimento degli annunci e dei contenuti. È possibile ricavare informazioni sul pubblico che ha visto gli annunci e i contenuti. Tali dati possono essere utilizzati per sviluppare o migliorare l'esperienza, i sistemi e il software dell'utente.

Cliccando su “Accetto”, acconsenti all'uso di cookie, identificatori di dispositivo, web beacon o altre tecnologie simili. Puoi modificare le impostazioni nel browser del tuo dispositivo.

Per determinati scopi, è possibile fare affidamento su interessi legali, piuttosto che sul consenso. Puoi approfondire questo argomento consultando la nostra Informativa sulla privacy e sui cookie.